Location: Newark
(42.8481°N, 0.4872°E)
Time: 03:45:57
(UTC+00:00)

SR - Pass Details

Date: 09 November 2020
Orbit: 579 x 876 km, 66.7° (Epoch: 26 November)

Event Time Altitude Azimuth Distance (km) Brightness Sun altitude
Rises 07:57:58 0° 329° (NNW) 3,114 ? 11.1°
Reaches altitude 10° 08:00:14 10° 330° (NNW) 2,236 ? 11.5°
Maximum altitude 08:05:23 85° 58° (ENE) 786 ? 12.2°
Drops below altitude 10° 08:10:58 10° 149° (SSE) 2,413 ? 13.0°
Sets 08:13:29 0° 150° (SSE) 3,378 ? 13.4°
